RH
28 27 22 23 21 10 11 36 47 12 23 66 79 69 58 51 50 48 51 57 68 74 77 86 92 96 84 59 79 95 74 45 44 37 45 45 38 25 24 32 38 39 29 24
28 29 24 23 22 18 14 68 31 16 34 87 74 54 50 50 48 52 51 56 60 58 66 82 74 74 56 58 90 95 79 52 56 55 41 42 40 37 32 33 30 30 34 23
25 29 29 24 23 21 15 77 92 48 41 54 53 45 44 42 49 48 48 52 49 56 60 60 68 65 57 57 69 71 79 71 49 41 40 40 41 42 33 28 30 27 27 21
20 29 32 26 24 21 18 86 77 70 78 76 75 65 78 58 57 54 48 56 61 68 67 63 66 63 60 58 66 71 79 90 74 72 74 62 52 42 38 33 26 29 23 25
18 23 32 32 26 24 42 82 83 78 93 84 66 59 72 66 66 74 58 66 62 76 87 82 83 78 73 83 69 81 78 97 82 77 76 73 60 51 45 38 35 28 30 28
19 20 28 35 30 26 53 82 62 70 78 69 67 60 58 62 69 52 56 58 56 71 60 52 51 51 55 64 84 92 93 97 94 87 78 81 77 58 49 40 36 33 40 30
24 19 21 32 36 30 35 57 54 82 74 66 60 69 66 61 61 58 57 49 52 46 46 55 59 61 62 64 74 76 92 93 97 95 92 96 48 56 56 49 44 40 44 45
32 25 21 24 36 36 33 45 51 82 79 62 74 80 75 72 61 76 73 56 48 53 69 83 80 77 72 77 72 86 81 92 97 95 88 74 56 65 59 57 45 46 44 48
44 33 26 25 29 39 38 42 44 57 87 75 63 65 81 62 63 63 60 60 55 66 74 84 63 50 63 72 79 76 78 84 94 94 96 85 53 66 60 59 57 52 51 49
92 51 39 31 28 42 42 44 44 53 91 63 67 68 68 70 66 57 64 62 58 63 86 82 74 58 82 63 73 92 90 92 96 96 97 80 67 64 68 76 52 54 49 48
93 97 78 48 51 52 54 49 50 50 86 65 69 61 73 74 67 67 76 61 68 79 82 80 70 78 74 77 73 80 74 79 87 92 97 85 66 75 72 66 52 50 50 49
88 92 98 94 79 70 65 55 55 53 62 75 62 64 53 49 51 68 80 76 64 65 78 84 78 77 90 70 46 81 72 63 57 66 63 61 64 69 70 60 53 48 47 47
94 92 90 93 94 99 76 62 58 60 76 77 78 74 79 75 65 40 70 71 70 76 83 78 80 74 70 71 70 64 69 82 71 61 62 56 55 63 62 56 48 43 43 43
100 95 94 86 88 97 97 82 61 54 68 80 79 74 80 82 85 72 49 64 82 85 81 83 81 77 68 66 66 59 60 73 63 73 69 59 61 58 57 58 43 42 47 45
100 100 98 91 81 93 99 96 81 56 64 82 72 76 75 60 81 74 60 67 82 90 91 90 84 81 81 87 88 85 79 76 45 38 40 51 41 60 56 65 54 42 49 52
100 100 100 99 86 99 100 95 87 86 57 81 89 74 68 52 61 67 66 71 83 84 84 84 87 85 82 89 82 69 84 86 73 49 55 58 56 63 67 73 62 53 49 45
98 99 100 100 96 99 84 70 54 85 51 89 94 86 67 56 64 65 70 79 80 80 80 92 86 89 90 95 78 59 79 81 79 78 75 68 79 59 80 76 72 62 63 56
99 98 100 100 100 100 98 62 57 52 82 84 93 89 74 65 85 88 72 84 86 87 82 85 85 86 91 100 75 66 72 81 80 81 79 77 82 86 86 83 83 80 77 79
100 100 99 100 100 99 99 52 50 67 77 94 94 87 83 62 76 76 86 84 93 79 87 81 79 81 93 65 66 70 80 76 72 87 86 89 85 75 82 83 85 75 77 79
79 100 100 99 99 99 91 96 96 96 96 95 91 74 82 58 69 80 81 87 82 90 66 78 88 74 62 62 71 74 77 81 84 83 85 91 88 83 82 85 79 73 73 73
93 99 98 99 100 98 98 96 95 94 94 87 78 78 89 60 73 71 66 81 79 82 70 79 81 79 70 92 94 90 84 82 82 79 80 76 73 79 80 81 79 77 78 76
100 97 98 98 98 97 95 94 93 92 85 84 90 86 66 67 65 68 83 77 82 82 82 92 89 79 90 91 93 87 86 84 84 85 87 83 78 77 80 78 79 79 78 77
98 97 96 96 96 96 95 97 95 97 88 92 89 81 76 85 80 85 82 89 87 76 91 83 77 84 94 95 90 84 89 90 87 84 87 87 84 75 73 77 74 76 82 76
97 95 95 95 95 90 89 76 78 75 81 83 70 81 76 84 87 89 90 83 83 93 95 85 74 90 96 93 92 87 90 86 84 83 84 84 84 83 77 72 70 74 85 80
97 96 94 95 83 92 94 91 82 81 69 69 84 83 75 88 92 92 92 93 93 87 78 71 87 92 92 92 90 90 90 89 87 84 84 84 81 79 76 65 67 75 77 79
99 97 97 92 92 100 92 90 88 81 68 82 87 91 94 94 93 94 91 88 88 74 78 86 87 90 91 91 87 87 90 90 91 91 88 86 85 84 82 76 73 68 72 80
98 97 93 90 91 90 89 85 88 70 74 93 95 95 92 95 94 93 82 87 79 89 91 86 88 90 91 88 85 86 89 90 94 95 94 94 89 82 87 83 79 72 76 74
Wind_Speed
32 38 43 47 45 28 8 2 4 19 7 5 4 4 3 1 2 3 2 1 2 2 3 2 2 4 2 8 4 2 3 1 11 7 1 2 2 7 10 9 7 2 5 5
29 33 38 42 41 33 5 3 2 12 8 4 3 3 3 3 2 2 1 1 3 2 2 1 1 1 2 4 2 2 5 2 7 1 3 3 4 3 2 1 2 11 7 5
24 29 33 37 37 33 5 2 4 5 6 4 4 4 2 1 2 2 1 1 2 1 1 2 1 2 0 4 4 4 3 1 2 8 2 1 5 5 5 4 9 12 13 9
20 23 28 32 34 26 5 5 2 1 4 5 4 2 1 2 1 1 2 1 4 1 2 1 1 1 3 1 10 4 2 2 3 3 2 0 3 7 11 12 14 10 13 8
17 19 22 26 29 18 11 2 2 2 3 1 1 2 1 1 2 1 1 3 3 0 0 1 1 3 2 1 5 5 5 2 1 2 1 2 5 9 9 13 9 15 6 12
15 16 18 21 23 19 6 3 2 0 1 1 1 0 3 3 3 3 2 2 2 0 2 2 3 2 3 5 3 3 4 2 3 2 2 2 7 18 17 10 11 11 13 12
11 12 13 14 18 18 7 2 3 1 1 2 0 3 3 4 3 2 3 4 3 3 1 1 2 2 3 2 4 3 1 1 1 1 4 7 2 2 1 13 9 14 4 5
12 10 10 9 9 11 10 4 1 1 2 2 2 3 3 2 1 3 3 4 2 2 2 1 1 1 1 0 1 1 2 0 2 3 6 7 4 6 7 9 7 12 15 9
15 12 10 8 7 6 4 6 3 0 3 5 4 4 4 2 3 1 3 1 0 2 1 1 2 3 1 2 2 3 3 4 2 2 4 5 3 1 1 2 7 1 4 9
18 17 13 10 8 6 2 2 2 2 1 3 5 4 4 5 1 1 1 3 3 2 2 3 4 2 0 3 4 5 3 2 5 5 5 8 0 4 2 6 1 4 6 9
22 20 16 13 11 7 4 3 2 2 1 2 8 8 5 3 3 3 4 3 2 2 3 3 3 4 4 2 3 5 8 9 5 4 5 9 7 5 6 1 2 1 2 7
26 23 20 17 14 12 7 5 7 4 3 1 5 11 9 5 5 4 3 2 2 3 3 2 1 3 3 3 3 2 4 5 3 9 5 2 10 2 1 2 2 3 5 6
29 26 23 20 17 16 13 6 8 3 1 2 2 5 8 12 8 5 3 2 1 2 2 3 0 6 4 5 7 4 7 4 3 2 4 10 9 11 4 5 4 3 4 8
33 30 27 24 20 18 19 11 9 5 3 2 1 2 2 4 9 7 3 7 6 6 1 2 2 3 2 2 2 5 1 10 6 6 8 6 12 13 10 11 6 6 6 7
36 35 32 29 25 21 23 17 12 12 3 2 2 1 3 4 8 8 7 11 5 2 2 3 4 1 3 1 2 6 8 8 7 7 6 2 2 2 6 12 14 12 12 9
34 37 36 33 27 25 19 2 18 26 14 2 2 2 2 3 7 9 9 8 2 2 2 3 2 0 3 4 5 4 14 10 4 3 2 1 2 2 3 8 10 11 12 11
31 30 39 39 33 35 10 4 5 25 17 3 2 3 2 4 4 2 2 3 2 2 2 3 2 3 4 3 7 3 9 12 6 3 4 4 5 3 2 5 7 13 8 9
31 31 41 44 37 28 14 6 22 25 8 1 3 1 2 9 3 3 2 3 3 4 2 1 3 2 2 6 9 12 2 1 5 10 10 2 3 1 2 2 7 7 8 7
32 29 36 30 12 7 12 25 25 8 2 3 4 4 3 5 2 2 2 2 3 1 3 3 5 4 8 11 9 6 10 8 3 3 5 4 6 5 6 7 8 9 10 9
20 20 6 4 12 39 33 7 4 2 2 2 4 2 4 5 3 3 4 2 3 3 4 4 5 6 19 13 9 5 4 7 9 5 2 5 7 10 10 12 10 11 10 12
7 1 3 14 38 8 2 5 5 4 3 5 5 10 6 4 4 4 3 3 3 3 3 4 3 4 3 5 5 2 4 6 8 2 2 3 2 5 8 8 9 10 9 12
11 18 13 9 2 2 6 6 4 6 7 6 6 3 3 3 2 3 3 4 3 4 4 3 3 4 2 4 4 5 3 1 3 3 5 5 4 1 2 3 8 13 15 13
13 4 4 3 3 5 10 9 5 5 7 7 5 5 4 2 1 3 3 5 5 4 3 4 6 2 2 4 3 4 4 4 2 2 2 4 5 6 5 4 5 8 12 17
3 6 6 6 5 7 6 3 3 2 6 11 8 5 4 3 4 3 5 3 3 4 3 7 0 1 2 3 2 2 5 4 4 4 3 1 1 2 3 6 8 8 10 14
4 5 6 8 2 2 2 3 3 3 9 10 5 4 3 3 4 3 4 4 5 6 5 2 3 4 3 4 4 5 6 6 5 6 5 6 5 4 4 5 7 9 9 10
5 6 4 3 3 1 2 2 4 2 8 4 3 4 4 4 4 5 9 6 8 3 2 4 6 5 4 4 4 4 5 5 5 5 5 5 4 3 3 3 4 5 7 10
5 3 2 4 2 3 4 4 4 7 7 3 4 8 5 4 4 4 6 5 1 4 6 5 6 5 4 3 4 6 7 6 6 6 7 6 7 7 5 5 4 6 6 9
Wind_Direction
8 8 10 8 6 10 9 43 46 344 57 49 46 76 101 101 24 347 342 339 351 349 49 23 138 150 293 349 290 324 359 19 170 169 70 340 12 194 207 201 188 209 215 219
5 8 10 9 5 9 16 49 330 356 26 75 62 99 99 59 101 57 24 24 355 340 329 171 198 192 147 353 35 14 332 117 139 169 195 185 224 148 166 78 129 208 213 203
2 5 9 11 9 7 46 74 12 21 48 37 94 132 71 108 43 79 144 335 218 276 296 359 158 181 130 327 340 291 258 69 272 198 162 161 192 182 178 228 228 225 234 255
359 2 7 12 12 11 50 19 99 311 3 39 73 73 132 94 335 348 336 35 33 250 181 299 118 9 313 182 355 350 19 103 332 332 4 282 201 193 191 210 233 224 240 213
351 358 4 11 16 17 64 82 150 87 111 156 238 342 126 118 174 215 24 100 330 30 195 248 304 334 22 73 336 12 336 130 145 232 222 336 293 265 241 228 228 245 255 233
341 349 357 6 16 28 79 88 104 217 325 123 222 151 174 166 166 191 188 155 187 62 349 291 320 299 313 316 345 31 360 151 160 223 159 289 256 228 220 224 228 226 224 226
319 334 344 358 11 30 70 119 132 126 123 289 322 187 195 191 195 175 176 175 181 137 308 256 250 261 264 262 301 298 98 244 250 181 186 225 247 66 276 235 236 214 247 178
291 307 320 334 356 15 54 70 140 156 147 181 203 224 212 200 240 224 218 183 153 174 181 220 289 244 299 282 76 205 298 343 193 227 220 318 241 191 189 189 240 224 229 168
269 274 285 296 318 340 30 62 96 217 129 224 121 155 206 208 204 229 224 133 256 210 140 153 220 235 81 201 153 49 160 50 287 165 231 235 347 133 235 244 261 183 231 188
256 258 261 267 278 295 313 153 99 137 190 181 154 187 177 143 139 222 183 170 155 289 175 185 209 220 122 224 199 171 181 198 217 215 257 283 76 155 228 190 274 174 184 174
253 250 248 247 253 253 257 227 171 153 222 213 192 174 148 145 202 191 141 146 174 117 197 216 188 209 177 213 181 185 183 172 190 175 210 265 154 134 205 95 129 171 213 179
248 249 243 237 232 236 230 221 200 196 198 258 211 219 221 205 187 140 168 323 170 173 111 212 139 201 181 195 238 196 238 217 197 207 212 120 199 261 205 206 189 194 189 173
246 240 239 235 229 226 222 219 190 165 263 251 244 214 219 220 217 206 159 224 161 163 14 147 122 238 167 189 225 205 223 172 231 312 206 229 223 222 228 209 228 210 198 170
244 236 231 229 228 219 227 214 201 183 105 261 206 137 158 198 208 211 202 126 114 101 123 147 200 245 203 262 337 231 140 155 193 254 273 265 246 232 224 205 206 184 170 177
245 234 227 223 225 213 218 224 220 212 197 236 259 153 206 177 179 179 159 144 131 146 155 181 222 198 192 220 296 239 182 185 187 226 191 198 159 155 200 206 201 190 172 165
247 236 224 212 209 196 196 256 226 213 192 161 277 72 63 107 149 144 151 156 122 149 191 208 230 185 211 216 246 231 196 214 213 227 142 234 57 281 214 216 196 184 181 174
237 237 226 207 196 189 180 211 198 177 169 131 244 218 138 138 124 110 119 137 159 200 219 224 223 197 202 245 247 191 212 223 216 160 128 262 203 224 200 219 177 175 159 166
250 228 223 204 190 184 187 159 149 148 115 145 238 206 201 181 164 151 160 159 181 202 241 206 210 153 217 255 250 251 211 112 234 215 212 74 76 105 195 191 150 155 173 170
245 240 213 179 170 149 154 153 160 171 194 206 195 199 206 162 122 107 134 165 187 169 232 229 173 192 228 228 240 231 193 195 202 131 180 186 224 220 195 187 192 190 190 183
261 234 101 158 152 131 128 97 150 206 228 247 222 150 174 162 160 155 134 174 218 224 220 150 228 252 261 254 246 247 220 166 142 119 217 215 238 221 207 210 205 206 195 188
205 113 92 120 133 115 138 152 173 157 226 205 213 199 156 204 145 159 216 177 177 233 172 213 247 261 261 10 19 51 139 160 205 261 340 189 231 205 207 213 222 214 192 192
139 107 107 145 238 147 151 172 144 197 221 178 163 164 113 139 169 129 177 177 163 249 142 214 251 253 22 16 8 2 3 342 255 258 255 254 261 266 188 205 206 208 212 206
112 86 121 184 188 199 178 188 206 202 167 165 160 131 124 126 201 96 153 168 207 124 197 234 236 73 46 15 15 26 16 21 327 305 291 262 237 213 216 234 242 230 213 214
153 146 186 212 192 232 199 214 157 141 129 145 134 120 141 137 143 147 168 143 144 203 231 234 256 78 72 51 43 50 20 29 42 33 24 55 132 214 250 273 272 251 228 218
169 183 214 212 191 63 344 96 95 79 141 142 112 101 126 142 132 167 110 148 229 222 230 211 139 124 100 70 62 50 37 23 29 14 17 16 12 6 322 296 261 241 238 225
198 217 196 106 139 164 137 115 122 144 150 130 92 132 157 174 142 152 203 180 219 216 191 126 129 115 91 77 57 54 47 36 20 19 14 360 357 321 289 281 271 262 238 231
208 192 68 126 102 191 165 144 163 168 177 165 148 165 180 117 174 211 187 207 244 134 116 104 97 95 80 59 50 38 25 18 16 7 8 2 348 338 332 307 310 291 261 243